Home > Weather > Groningen > Past weeks

Flag for Netherlands Weather for the Past 2 Weeks in Groningen, Netherlands

Now
37 °F

Chilly.


Feels Like: 37 °F
Forecast: 43 / 61 °F
Wind: 1 mph from Southwest

Location: Groningen Eelde Airport

Current Time: May 4, 2016 at 2:40:09 AM

Latest Report: May 4, 2016 at 1:55 AM


Visibility: N/A

Pressure: 30.36 "Hg

Humidity: 100%

Dew Point: 37 °F

Location of GroningenLocation

Historic Weather in Groningen — Graph

°F

Groningen Temperature Yesterday

Maximum temperature yesterday: 55 °F (at 1:25 PM)
Minimum temperature yesterday: 39 °F (at 11:25 PM)
Average temperature yesterday: 50 °F

High & Low Weather Summary for the Past Weeks

 TemperatureHumidityPressure
High64 °F (May 2, 3:55 PM)100% (Apr 20, 6:25 AM)30.48 "Hg (Apr 20, 6:25 AM)
Low30 °F (Apr 21, 4:55 AM)43% (Apr 28, 1:25 PM)29.33 "Hg (Apr 26, 7:55 AM)
Average44 °F78%30.02 "Hg
* Reported Apr 19 1:25 AM — May 4 1:25 AM, Groningen, Weather by CustomWeather, © 2016

Note: Actual official high and low records may vary slightly from our data, if they occured in-between our weather recording intervals... More about our weather records

Advertising

Groningen Weather History for the Previous 24 Hours

Scroll right to see more
 ConditionsComfort  
Time TempWeatherWind HumidityBarometerVisibility
1:25 AM
Wed, May 4
37 °FChilly.5 mph93%30.36 "HgN/A
12:55 AM37 °FClear.5 mph100%30.33 "HgN/A
12:25 AM41 °FQuite cool.2 mph93%30.33 "HgN/A
11:55 PM
Tue, May 3
39 °FClear.5 mph93%30.33 "HgN/A
11:25 PM39 °FChilly.5 mph93%30.33 "HgN/A
10:55 PM41 °FQuite cool.3 mph93%30.33 "HgN/A
10:25 PM45 °FClear.2 mph87%30.30 "HgN/A
9:55 PM45 °FQuite cool.5 mph87%30.30 "HgN/A
9:25 PM46 °FCool.6 mph82%30.30 "HgN/A
8:55 PM48 °FCool.8 mph76%30.30 "HgN/A
8:25 PM50 °FCool.10 mph71%30.27 "HgN/A
7:55 PM50 °FCool.12 mph67%30.27 "HgN/A
7:25 PM52 °FCool.13 mph62%30.27 "HgN/A
6:55 PM52 °FPassing clouds.15 mph62%30.27 "HgN/A
6:25 PM54 °FScattered clouds.14 mph54%30.24 "HgN/A
5:55 PM54 °FScattered clouds.14 mph58%30.24 "HgN/A
5:25 PM54 °FPassing clouds.14 mph54%30.24 "HgN/A
4:55 PM54 °FScattered clouds.13 mph58%30.24 "HgN/A
4:25 PM55 °FPartly sunny.15 mph59%30.24 "HgN/A
3:55 PM54 °FScattered clouds.15 mph58%30.21 "HgN/A
3:25 PM52 °FPassing clouds.15 mph62%30.21 "HgN/A
2:55 PM54 °FScattered clouds.15 mph63%30.21 "HgN/A
2:25 PM55 °FScattered clouds.13 mph59%30.21 "HgN/A
1:25 PM55 °FBroken clouds.13 mph63%30.18 "HgN/A
12:55 PM54 °FScattered clouds.13 mph63%30.18 "HgN/A
12:25 PM54 °FPassing clouds.15 mph63%30.15 "HgN/A
11:55 AM54 °FPassing clouds.16 mph67%30.15 "HgN/A
11:25 AM52 °FBroken clouds.13 mph72%30.15 "HgN/A
10:55 AM52 °FMostly cloudy.16 mph77%30.15 "HgN/A
10:25 AM52 °FPartly sunny.14 mph77%30.12 "HgN/A
9:55 AM52 °FBroken clouds.15 mph77%30.12 "HgN/A
9:25 AM52 °FPassing clouds.14 mph77%30.09 "HgN/A
8:55 AM50 °FBroken clouds.13 mph82%30.09 "HgN/A
8:25 AM50 °FPassing clouds.8 mph82%30.07 "HgN/A
7:55 AM48 °FPassing clouds.8 mph94%30.07 "HgN/A
7:25 AM46 °FScattered clouds.7 mph93%30.07 "HgN/A
6:55 AM46 °FBroken clouds.7 mph93%30.04 "HgN/A
6:25 AM46 °FMostly cloudy.6 mph93%30.04 "HgN/A
5:55 AM46 °FMostly cloudy.5 mph93%30.04 "HgN/A
5:25 AM46 °FSprinkles. Partly cloudy.6 mph93%30.01 "HgN/A
4:55 AM48 °FSprinkles. Passing clouds.9 mph87%30.01 "HgN/A
4:25 AM48 °FPassing clouds.10 mph94%30.01 "HgN/A
3:55 AM50 °FRain showers. Partly cloudy.10 mph82%29.98 "Hg4 mi
2:55 AM54 °FOvercast.9 mph88%30.01 "HgN/A
2:25 AM54 °FMostly cloudy.9 mph88%30.01 "HgN/A
Weather by CustomWeather, © 2016

See weather overviewHow to use our weather pages